Hourly Weather Kiten

Today, 27 July, Tuesday

Time Temperature Precipitation Wind Pressure Humidity
00:00 +22°C° 0 mm 1 mps 761 mmHg 67%
01:00 +20°C° 0 mm 2 mps 761 mmHg 66%
02:00 +20°C° 0 mm 2 mps 761 mmHg 65%
03:00 +20°C° 0 mm 2 mps 761 mmHg 64%
04:00 +20°C° 0 mm 2 mps 761 mmHg 63%
05:00 +21°C° 0 mm 1 mps 761 mmHg 62%
06:00 +23°C° 0 mm 1 mps 761 mmHg 54%
07:00 +26°C° 0 mm 2 mps 761 mmHg 47%
08:00 +29°C° 0 mm 2 mps 761 mmHg 39%
09:00 +30°C° 0 mm 2 mps 761 mmHg 36%
10:00 +32°C° 0 mm 2 mps 761 mmHg 33%
11:00 +34°C° 0 mm 3 mps 761 mmHg 29%
12:00 +34°C° 0 mm 3 mps 761 mmHg 29%
13:00 +35°C° 0 mm 3 mps 761 mmHg 28%
14:00 +35°C° 0 mm 3 mps 760 mmHg 28%
15:00 +35°C° 0 mm 3 mps 760 mmHg 29%
16:00 +34°C° 0 mm 3 mps 760 mmHg 31%
17:00 +34°C° 0 mm 3 mps 760 mmHg 32%
18:00 +30°C° 0 mm 3 mps 760 mmHg 43%
19:00 +27°C° 0 mm 3 mps 760 mmHg 55%
20:00 +24°C° 0 mm 2 mps 760 mmHg 66%
21:00 +24°C° 0 mm 2 mps 760 mmHg 67%
22:00 +24°C° 0 mm 2 mps 760 mmHg 68%
23:00 +23°C° 0 mm 1 mps 760 mmHg 69%

Tomorrow, 28 July, Wednesday

Time Temperature Precipitation Wind Pressure Humidity
00:00 +23°C° 0 mm 1 mps 760 mmHg 70%
01:00 +23°C° 0 mm 1 mps 760 mmHg 71%
02:00 +22°C° 0 mm 1 mps 760 mmHg 71%
03:00 +22°C° 0 mm 1 mps 760 mmHg 71%
04:00 +22°C° 0 mm 1 mps 760 mmHg 70%
05:00 +21°C° 0 mm 2 mps 760 mmHg 70%
06:00 +25°C° 0 mm 1 mps 760 mmHg 61%
07:00 +27°C° 0 mm 1 mps 760 mmHg 53%
08:00 +30°C° 0 mm 1 mps 760 mmHg 44%
09:00 +32°C° 0 mm 1 mps 760 mmHg 40%
10:00 +34°C° 0 mm 2 mps 759 mmHg 36%
11:00 +36°C° 0 mm 3 mps 759 mmHg 32%
12:00 +36°C° 0 mm 3 mps 759 mmHg 31%
13:00 +36°C° 0 mm 4 mps 759 mmHg 31%
14:00 +37°C° 0 mm 4 mps 759 mmHg 31%
15:00 +36°C° 0 mm 5 mps 758 mmHg 32%
16:00 +35°C° 0 mm 5 mps 758 mmHg 34%
17:00 +35°C° 0 mm 5 mps 757 mmHg 35%
18:00 +32°C° 0 mm 4 mps 758 mmHg 46%
19:00 +28°C° 0 mm 4 mps 758 mmHg 58%
20:00 +25°C° 0 mm 3 mps 758 mmHg 69%
21:00 +25°C° 0 mm 3 mps 758 mmHg 71%
22:00 +24°C° 0 mm 2 mps 758 mmHg 73%
23:00 +24°C° 0 mm 2 mps 758 mmHg 75%

Day after tomorrow, 29 July, Thursday

Time Temperature Precipitation Wind Pressure Humidity
00:00 +23°C° 0 mm 2 mps 758 mmHg 75%
01:00 +23°C° 0 mm 2 mps 758 mmHg 74%
02:00 +23°C° 0 mm 2 mps 758 mmHg 73%
03:00 +23°C° 0 mm 1 mps 758 mmHg 70%
04:00 +23°C° 0 mm 1 mps 758 mmHg 66%
05:00 +23°C° 0 mm 1 mps 757 mmHg 63%
06:00 +25°C° 0 mm 1 mps 757 mmHg 55%
07:00 +28°C° 0 mm 1 mps 758 mmHg 46%
08:00 +30°C° 0 mm 1 mps 758 mmHg 38%
09:00 +32°C° 0 mm 1 mps 757 mmHg 35%
10:00 +34°C° 0 mm 2 mps 757 mmHg 32%
11:00 +36°C° 0 mm 2 mps 757 mmHg 29%
12:00 +36°C° 0 mm 3 mps 757 mmHg 29%
13:00 +37°C° 0 mm 4 mps 757 mmHg 29%
14:00 +37°C° 0 mm 4 mps 756 mmHg 28%
15:00 +37°C° 0 mm 4 mps 756 mmHg 30%
16:00 +36°C° 0 mm 4 mps 756 mmHg 31%
17:00 +35°C° 0 mm 5 mps 756 mmHg 32%
18:00 +33°C° 0 mm 4 mps 756 mmHg 40%
19:00 +29°C° 0 mm 4 mps 756 mmHg 47%
20:00 +27°C° 0 mm 3 mps 756 mmHg 55%
21:00 +26°C° 0 mm 3 mps 756 mmHg 56%
22:00 +25°C° 0 mm 2 mps 756 mmHg 57%
23:00 +25°C° 0 mm 1 mps 757 mmHg 58%

30 July, Friday

Time Temperature Precipitation Wind Pressure Humidity
00:00 +24°C° 0 mm 1 mps 756 mmHg 58%
01:00 +24°C° 0 mm 2 mps 756 mmHg 59%
02:00 +24°C° 0 mm 2 mps 756 mmHg 60%
03:00 +24°C° 0 mm 1 mps 756 mmHg 59%
04:00 +24°C° 0 mm 1 mps 756 mmHg 58%
05:00 +24°C° 0 mm 1 mps 756 mmHg 56%
06:00 +26°C° 0 mm 1 mps 756 mmHg 50%
07:00 +29°C° 0 mm 1 mps 756 mmHg 43%
08:00 +29°C° 0 mm 0 mps 756 mmHg 37%
09:00 +33°C° 0 mm 1 mps 756 mmHg 34%
10:00 +36°C° 0 mm 2 mps 756 mmHg 31%
11:00 +37°C° 0 mm 3 mps 756 mmHg 29%
12:00 +37°C° 0 mm 3 mps 755 mmHg 29%
13:00 +38°C° 0 mm 4 mps 755 mmHg 28%
14:00 +39°C° 0 mm 5 mps 755 mmHg 28%
15:00 +37°C° 0 mm 5 mps 754 mmHg 30%
16:00 +36°C° 0 mm 5 mps 754 mmHg 33%
17:00 +36°C° 0 mm 5 mps 754 mmHg 35%
18:00 +33°C° 0 mm 5 mps 754 mmHg 44%
19:00 +29°C° 0 mm 4 mps 754 mmHg 53%
20:00 +26°C° 0 mm 3 mps 754 mmHg 62%
21:00 +26°C° 0 mm 3 mps 755 mmHg 63%
22:00 +25°C° 0 mm 2 mps 755 mmHg 63%
23:00 +25°C° 0 mm 2 mps 755 mmHg 64%

31 July, Saturday

Time Temperature Precipitation Wind Pressure Humidity
00:00 +25°C° 0 mm 2 mps 755 mmHg 62%
01:00 +25°C° 0 mm 1 mps 755 mmHg 59%
02:00 +24°C° 0 mm 1 mps 754 mmHg 56%
03:00 +24°C° 0 mm 1 mps 754 mmHg 56%
04:00 +24°C° 0 mm 1 mps 754 mmHg 55%
05:00 +24°C° 0 mm 1 mps 754 mmHg 55%
06:00 +27°C° 0 mm 1 mps 754 mmHg 48%
07:00 +29°C° 0 mm 1 mps 754 mmHg 42%
08:00 +32°C° 0 mm 1 mps 754 mmHg 36%
09:00 +35°C° 0 mm 2 mps 754 mmHg 33%
10:00 +37°C° 0 mm 3 mps 754 mmHg 31%
11:00 +38°C° 0 mm 3 mps 754 mmHg 28%
12:00 +40°C° 0 mm 4 mps 754 mmHg 28%
13:00 +40°C° 0 mm 5 mps 753 mmHg 28%
14:00 +40°C° 0 mm 5 mps 753 mmHg 29%
15:00 +39°C° 0 mm 6 mps 753 mmHg 31%
16:00 +38°C° 0 mm 6 mps 753 mmHg 33%
17:00 +36°C° 0 mm 6 mps 753 mmHg 35%
18:00 +33°C° 0 mm 5 mps 753 mmHg 43%
19:00 +30°C° 0 mm 5 mps 753 mmHg 52%
20:00 +27°C° 0 mm 4 mps 753 mmHg 60%
21:00 +27°C° 0 mm 3 mps 754 mmHg 60%
22:00 +27°C° 0 mm 2 mps 754 mmHg 60%
23:00 +26°C° 0 mm 1 mps 755 mmHg 60%

1 August, Sunday

Time Temperature Precipitation Wind Pressure Humidity
00:00 +26°C° 0 mm 1 mps 755 mmHg 62%
01:00 +26°C° 0 mm 1 mps 755 mmHg 65%
02:00 +26°C° 0 mm 1 mps 755 mmHg 68%
03:00 +25°C° 0 mm 1 mps 755 mmHg 70%
04:00 +25°C° 0 mm 1 mps 755 mmHg 72%
05:00 +24°C° 0 mm 2 mps 754 mmHg 75%
06:00 +26°C° 0 mm 1 mps 755 mmHg 65%
07:00 +29°C° 0 mm 1 mps 755 mmHg 56%
08:00 +31°C° 0 mm 1 mps 755 mmHg 46%
09:00 +34°C° 0 mm 2 mps 755 mmHg 42%
10:00 +35°C° 0 mm 3 mps 755 mmHg 37%
11:00 +37°C° 0 mm 4 mps 755 mmHg 32%
12:00 +37°C° 0 mm 4 mps 755 mmHg 31%
13:00 +38°C° 0 mm 4 mps 754 mmHg 31%
14:00 +39°C° 0 mm 5 mps 754 mmHg 30%
15:00 +37°C° 0 mm 5 mps 754 mmHg 32%
16:00 +36°C° 0 mm 5 mps 754 mmHg 35%
17:00 +35°C° 0 mm 5 mps 754 mmHg 37%
18:00 +33°C° 0 mm 4 mps 754 mmHg 46%
19:00 +29°C° 0 mm 4 mps 754 mmHg 55%
20:00 +27°C° 0 mm 3 mps 754 mmHg 64%
21:00 +26°C° 0 mm 3 mps 754 mmHg 64%
22:00 +26°C° 0 mm 3 mps 754 mmHg 63%
23:00 +25°C° 0 mm 3 mps 754 mmHg 63%
Show more